Temperature
23 23 23 23 28 30 30 31 31 31 31 29 28 28 29 29 28 26 22 21 21 20 19 20 19 19 19 19 19 19 19 19 19 19 19 19 19 18 18 18 18 18 18 18 18 18 18 18 18
22 23 23 26 28 29 30 31 30 30 29 28 27 27 28 28 25 22 21 20 20 20 19 19 19 19 19 19 19 19 19 19 20 19 19 19 19 18 18 18 18 18 18 18 18 18 18 18 18
22 22 25 28 28 28 30 31 31 30 28 28 29 28 28 26 23 22 21 20 20 20 19 19 20 19 19 19 19 19 19 19 19 19 19 19 19 18 18 18 18 18 18 18 18 18 18 18 18
22 23 26 27 28 29 30 30 30 30 29 28 29 28 27 24 23 22 21 21 20 20 19 20 20 19 19 19 19 19 19 19 19 19 19 19 18 18 18 18 18 18 18 18 18 18 18 18 18
22 26 27 27 28 30 30 30 29 30 30 29 28 29 27 23 22 22 21 21 21 20 19 19 19 19 19 19 19 19 19 19 19 19 19 18 18 18 18 18 18 17 17 17 17 17 17 18 18
24 26 27 27 28 30 30 29 29 29 30 29 29 29 27 23 22 21 21 21 21 20 19 19 19 19 19 18 19 19 19 19 19 18 18 18 18 18 18 17 17 17 17 17 17 17 17 18 18
25 27 27 28 28 29 30 29 29 30 30 30 29 29 27 24 22 21 21 20 20 20 19 19 19 19 18 18 18 18 18 18 18 18 18 18 18 18 18 17 17 17 17 17 17 17 17 18 18
24 27 27 28 28 28 30 29 29 29 30 29 29 30 28 24 22 21 21 20 20 20 19 18 18 18 18 18 18 18 18 18 18 18 18 18 18 18 17 17 17 17 17 17 17 17 17 18 18
23 25 27 28 28 29 29 29 29 28 29 29 28 29 27 24 22 21 21 20 20 19 19 18 18 18 18 17 18 18 18 18 18 18 18 18 17 17 17 16 17 17 17 17 17 17 17 18 18
23 25 27 28 29 29 29 29 29 29 29 29 28 27 25 24 23 22 22 21 20 19 19 19 18 18 18 18 17 17 17 18 18 17 17 17 17 17 17 16 17 17 17 17 17 17 17 17 17
24 26 27 27 27 27 28 29 28 29 30 30 29 28 25 24 24 23 23 22 21 20 19 19 18 18 18 18 18 17 17 17 17 17 17 17 17 17 16 16 16 16 17 16 16 17 17 17 17
25 26 26 27 27 27 28 28 29 29 30 30 29 28 25 25 25 24 23 23 22 21 20 19 19 18 18 18 18 17 17 17 17 17 17 17 17 17 16 16 16 16 16 16 16 16 16 16 17
25 25 25 25 26 27 27 28 28 29 29 28 28 28 26 26 26 25 24 23 22 21 20 20 19 18 18 18 17 17 17 17 17 17 17 17 17 17 16 16 16 16 16 16 16 16 16 16 16
25 25 25 26 26 27 28 29 29 29 29 28 28 27 27 27 26 25 24 23 22 21 20 20 19 19 19 19 18 17 17 17 17 17 17 17 17 16 16 16 16 16 16 16 16 16 16 16 16
25 25 26 26 27 28 28 29 30 29 29 28 28 28 27 27 26 25 25 24 23 21 21 20 20 20 20 19 19 18 17 17 17 17 16 16 16 16 16 16 16 16 16 16 16 15 16 16 16
24 25 25 27 28 28 28 29 31 29 29 29 29 28 27 27 26 26 25 24 23 22 21 21 20 20 21 20 19 18 18 17 17 17 16 16 16 16 16 16 16 16 16 16 16 16 16 16 15
25 25 26 27 28 28 28 30 30 29 29 29 29 29 28 27 26 25 25 24 23 22 21 20 20 20 20 20 19 18 18 17 17 16 16 16 16 16 16 16 16 16 16 16 16 16 16 15 15
25 26 26 27 28 28 28 29 30 29 29 30 29 29 28 27 26 25 24 24 22 21 21 20 20 20 19 19 19 18 17 17 16 16 16 16 16 16 16 16 16 16 15 15 15 15 15 15 14
25 26 26 27 27 27 28 28 29 30 29 30 29 29 28 27 27 26 24 23 22 21 20 20 19 19 19 18 18 17 17 16 16 16 16 16 15 15 15 15 15 15 15 15 14 14 14 14 13
24 24 25 26 26 26 27 28 29 29 29 28 28 27 27 26 26 25 24 23 22 21 20 20 19 19 19 18 17 17 16 16 16 16 15 15 15 14 14 14 14 14 14 14 14 13 13 13 12
23 24 25 25 26 26 26 27 28 29 28 27 26 25 25 24 24 24 24 23 22 21 20 19 19 18 18 17 17 16 16 16 15 15 14 14 14 13 13 13 13 13 13 13 13 12 12 12 11
23 24 25 25 25 26 26 27 29 28 28 27 26 24 23 22 22 23 23 22 22 21 20 19 18 18 17 17 17 16 16 16 15 15 14 14 13 13 12 12 12 12 12 12 12 11 11 11 10
24 25 24 24 24 25 25 26 28 28 27 26 24 22 20 19 20 20 21 21 21 21 20 19 18 17 17 17 16 16 16 16 15 15 14 13 12 12 12 12 12 11 11 11 11 11 10 10 9
25 24 24 24 25 24 25 26 27 28 26 25 22 19 17 17 18 18 18 18 18 18 18 18 17 17 16 16 16 15 15 15 15 14 13 12 12 12 11 11 11 10 10 10 10 10 9 8 8
24 23 23 23 23 24 26 25 27 24 22 21 20 18 16 15 16 16 16 16 16 16 16 16 16 16 15 15 15 15 14 14 14 13 13 12 11 11 10 10 10 10 10 10 9 8 7 7 6
23 23 23 23 24 25 25 25 25 22 20 18 17 16 15 14 14 14 14 15 15 15 15 15 15 15 15 14 14 14 13 13 13 12 12 11 11 10 9 9 9 9 9 8 8 7 6 6 6
24 24 25 24 24 25 26 25 23 21 19 18 17 15 14 14 13 14 14 14 14 14 14 14 14 14 14 14 13 13 13 12 12 11 11 10 9 9 9 8 8 8 7 7 6 6 6 6 6
25 25 24 23 23 23 25 25 25 22 19 18 16 15 13 13 13 13 13 13 13 13 13 14 14 13 13 13 12 12 12 11 11 10 10 9 9 8 8 8 7 7 6 6 6 6 5 5 5
23 24 24 24 24 24 24 25 23 22 19 17 15 13 12 12 12 12 12 13 13 13 13 13 13 12 12 12 12 12 11 11 10 10 9 8 8 8 7 7 6 6 6 6 5 5 5 4 4
24 24 24 23 23 24 24 23 20 20 18 15 13 12 12 12 12 12 12 12 12 12 12 12 12 12 11 11 11 11 10 10 9 9 8 8 7 7 6 6 6 5 5 5 4 4 4 3 3
Wind_Speed
8 7 5 5 7 7 7 2 3 3 1 2 0 1 3 4 4 2 6 14 16 18 20 21 17 15 14 13 14 17 19 20 20 19 18 17 16 15 14 13 12 12 12 12 12 11 11 10 9
7 5 5 6 8 9 6 2 4 4 3 2 3 1 1 2 4 5 10 15 17 18 19 20 19 17 16 15 14 16 18 19 19 18 17 16 15 14 13 12 11 11 10 10 10 10 9 8 7
7 6 5 7 10 11 8 4 6 5 2 4 3 1 2 3 4 6 11 17 17 17 18 20 20 18 17 16 16 16 17 17 17 17 16 15 14 13 12 11 10 9 9 9 9 9 8 7 6
6 6 6 10 16 14 13 11 8 6 6 6 4 3 3 4 4 9 16 18 18 17 18 20 20 18 18 17 16 16 16 16 16 16 15 14 12 11 10 9 8 8 7 7 7 8 7 6 5
6 7 12 17 19 17 14 14 11 10 7 7 5 3 5 6 8 14 16 17 17 16 17 20 19 18 18 17 17 16 15 15 15 14 13 12 10 9 8 7 7 7 6 6 7 7 6 5 4
7 8 16 20 20 16 15 14 13 13 10 8 7 4 5 9 10 14 16 15 16 15 16 20 19 18 18 18 17 16 15 15 14 13 12 11 10 9 7 7 6 6 5 6 7 7 6 4 3
13 13 20 22 19 16 15 13 14 15 13 11 7 5 6 10 11 14 14 14 15 15 15 18 20 19 18 17 17 16 15 14 14 13 12 11 10 9 8 7 6 5 5 6 6 6 5 4 3
11 11 19 19 17 16 12 11 12 15 14 8 7 6 6 13 14 14 14 14 14 15 14 15 18 19 19 18 17 16 15 14 13 13 12 11 10 9 8 9 7 5 5 5 6 6 5 4 3
10 12 16 16 14 13 9 10 11 10 12 11 11 5 5 18 17 15 14 14 14 14 14 14 16 16 17 17 18 16 14 13 13 13 12 12 12 12 11 9 8 6 5 5 5 5 4 3 5
11 15 16 9 9 7 6 8 8 11 16 16 14 8 10 19 19 18 17 17 17 17 16 16 15 15 16 14 15 15 15 14 14 13 14 13 10 8 8 12 8 6 5 6 6 5 6 7 5
12 15 12 8 8 7 6 7 8 13 16 18 18 16 15 19 19 19 18 17 17 17 16 16 15 15 14 12 12 12 12 12 13 12 12 10 8 8 7 8 10 9 9 8 8 8 5 3 1
12 14 11 9 7 8 9 8 9 15 17 12 15 16 19 21 21 20 19 17 16 17 18 16 16 14 14 12 11 10 9 9 10 12 12 10 7 7 6 6 6 6 6 4 5 4 4 3 3
17 13 13 14 13 13 13 14 12 13 13 8 11 16 20 22 21 20 18 17 17 17 17 17 16 15 13 11 9 10 9 9 10 10 11 10 8 6 6 5 4 5 4 5 5 4 4 4 4
14 16 13 14 15 14 15 13 10 10 11 12 13 17 20 21 21 20 19 18 18 17 17 16 16 15 13 12 10 8 9 8 9 9 10 10 8 6 6 5 4 4 3 2 2 3 3 3 2
11 12 14 16 15 13 11 13 12 6 9 12 14 16 18 19 20 21 21 20 19 17 17 16 16 16 15 13 12 9 8 8 7 7 8 9 8 7 5 4 4 3 3 4 3 4 3 3 3
12 14 15 15 13 12 11 12 9 4 7 10 11 13 15 17 19 20 21 19 18 17 17 17 15 16 16 13 11 8 7 7 6 6 6 8 8 6 5 4 4 6 6 6 5 4 4 4 3
13 15 16 14 10 9 13 11 8 2 5 7 8 10 12 14 18 19 20 19 18 17 16 17 17 17 16 14 10 8 6 5 4 4 4 5 6 5 5 5 6 7 7 6 5 5 4 4 3
15 15 14 15 11 10 13 12 6 4 4 6 6 7 9 12 15 16 18 18 17 16 16 17 17 16 15 13 9 7 6 4 2 2 2 3 3 5 7 7 8 8 6 5 5 5 4 3 2
7 12 13 11 5 8 12 12 10 6 6 7 6 6 6 8 9 11 15 17 17 17 17 17 17 16 14 11 11 9 6 5 4 4 6 6 6 7 8 8 8 6 5 5 5 4 4 3 2
11 10 11 9 5 7 11 13 12 9 7 4 4 4 5 7 7 7 11 15 18 18 18 17 17 16 15 12 9 7 7 6 5 5 5 6 7 7 7 9 7 6 5 5 4 4 3 3 1
17 15 13 10 7 9 10 15 15 11 7 4 1 3 5 8 9 7 8 12 15 17 18 16 16 16 15 13 10 10 8 5 4 5 3 5 7 7 6 8 8 6 5 5 5 4 4 3 2
16 15 13 11 11 12 9 15 15 12 11 5 0 5 8 9 9 7 5 7 11 13 14 15 15 14 14 14 13 13 9 7 6 5 5 6 8 8 7 7 8 6 5 6 5 4 4 3 3
12 11 12 11 12 12 11 12 14 12 13 5 4 7 10 10 8 7 4 1 3 6 9 11 13 13 14 13 14 13 10 8 8 9 10 8 7 9 9 9 9 8 7 7 7 6 4 3 2
9 8 8 10 11 15 15 13 13 9 6 2 5 8 10 9 8 8 9 9 8 8 10 12 14 13 13 12 11 12 13 12 12 12 11 9 7 7 9 10 9 9 9 8 7 6 6 4 3
13 11 9 11 11 12 11 11 6 9 6 5 6 8 9 9 9 10 11 12 11 12 12 13 14 13 12 11 10 11 12 13 13 12 12 11 9 8 8 9 8 9 9 9 8 6 5 4 2
17 17 11 8 11 10 10 10 7 9 8 7 7 9 10 10 11 12 12 12 12 13 13 13 14 13 12 11 11 10 10 9 10 12 12 11 9 9 9 9 9 9 9 8 6 5 3 2 1
14 16 16 11 9 8 9 7 8 8 8 8 9 10 10 10 11 11 12 12 12 13 13 13 14 13 12 12 12 11 11 12 13 14 13 11 10 10 10 10 9 9 7 6 4 3 2 1 2
16 13 11 13 12 13 12 13 11 14 10 9 9 9 9 10 10 11 11 12 12 12 13 14 14 14 13 13 12 11 13 14 14 13 13 12 11 10 10 9 8 7 6 5 2 3 2 1 2
14 14 13 13 13 13 13 7 4 11 11 10 10 9 9 9 10 10 10 11 12 13 13 13 14 14 13 13 14 14 14 14 14 13 13 12 11 10 9 8 7 7 6 4 3 2 1 2 4
12 13 15 13 13 12 12 2 6 9 12 12 11 9 9 10 10 11 11 12 12 13 13 14 13 14 14 14 14 14 14 14 14 13 13 12 11 9 9 8 7 6 5 3 2 1 2 4 5
Wind_Direction
203 216 250 263 265 259 267 286 317 318 9 69 107 284 320 326 323 27 117 151 151 153 151 157 158 157 152 146 140 137 138 141 144 144 144 145 143 139 135 131 126 124 123 120 116 111 107 105 104
195 212 239 256 270 265 244 270 304 332 20 114 148 200 287 40 48 102 138 149 154 153 154 160 155 158 155 152 147 142 141 142 143 143 145 145 144 142 140 138 134 131 126 121 115 111 108 107 107
189 223 256 263 259 262 265 289 322 318 194 204 184 187 5 41 103 135 143 152 155 155 158 151 156 159 158 157 155 150 147 146 145 146 147 147 147 146 143 142 138 134 127 121 116 112 111 109 105
191 216 242 254 256 256 270 283 307 281 200 203 205 146 96 61 118 138 144 156 158 158 159 153 160 162 160 160 161 158 154 152 151 150 150 150 149 146 145 144 142 140 135 127 119 113 109 105 95
224 242 248 252 255 260 266 272 275 259 217 195 207 157 115 101 114 136 151 158 160 160 160 156 162 163 163 164 164 163 160 157 155 153 151 149 146 146 149 151 154 155 149 135 120 112 106 97 74
217 237 248 251 255 257 259 259 254 245 225 193 196 174 118 128 141 151 156 163 162 161 162 154 162 167 168 169 169 168 165 162 159 155 152 150 151 154 159 164 167 166 155 135 121 114 107 94 61
232 237 248 253 260 258 254 249 241 233 221 201 197 181 139 151 153 158 160 166 165 166 165 162 170 173 174 174 173 171 169 167 163 160 159 159 162 165 169 170 169 163 148 134 123 116 108 92 61
238 241 245 246 250 251 241 232 232 230 221 204 205 210 164 158 156 161 165 170 171 171 171 170 175 177 180 181 178 174 172 171 168 168 170 169 170 175 178 186 166 162 149 138 126 116 109 106 87
227 235 237 233 236 235 218 225 223 226 223 210 215 227 127 150 158 167 171 176 178 178 177 177 179 181 186 185 175 180 179 179 177 180 179 183 192 187 187 183 148 165 158 144 126 116 121 167 150
214 229 233 233 233 220 206 233 232 215 216 214 214 195 150 156 166 178 182 183 183 183 186 183 186 184 189 186 176 189 192 187 198 192 187 199 200 197 194 136 152 170 165 158 137 140 183 224 171
216 230 231 228 234 252 256 256 239 226 222 219 213 196 176 173 177 188 192 191 188 185 189 190 189 189 190 187 185 191 196 188 200 200 195 203 197 199 200 175 173 186 191 192 161 193 194 177 111
223 232 240 240 234 255 273 277 253 233 230 227 219 198 184 187 188 193 197 195 192 190 190 193 188 191 197 194 191 193 199 191 198 193 202 197 204 207 197 197 184 187 199 194 198 192 160 155 155
225 230 234 245 255 266 278 271 263 244 229 225 212 195 193 198 198 196 199 198 197 195 193 193 192 189 194 200 201 198 204 200 200 197 200 207 205 208 201 198 191 203 194 190 198 195 159 168 160
221 231 242 249 256 263 265 265 243 232 211 207 202 200 203 206 204 197 197 201 200 198 196 193 194 191 192 197 204 204 207 207 211 204 205 208 215 206 205 195 188 194 201 196 188 160 166 172 128
229 232 238 241 244 249 253 244 223 206 197 202 204 207 212 213 208 204 200 201 201 198 196 195 194 193 193 198 203 205 209 208 216 210 209 210 218 205 199 192 172 149 125 115 120 114 117 112 106
213 226 233 225 223 227 233 221 174 175 197 202 208 210 215 218 216 211 207 203 202 197 195 196 196 193 192 195 197 200 200 204 215 215 211 210 218 205 190 163 138 123 119 118 111 108 101 85 71
203 214 218 209 206 216 223 223 161 186 210 212 212 216 218 220 223 218 214 206 204 200 195 195 199 194 190 189 188 188 180 192 202 211 222 210 206 188 158 132 123 124 117 113 111 104 104 97 80
201 210 207 210 188 220 226 230 210 219 238 229 224 224 223 227 226 222 218 213 205 201 198 197 196 194 187 181 176 173 169 163 124 71 51 78 114 131 130 125 127 125 118 112 107 108 101 101 96
213 214 208 206 188 233 231 236 236 237 247 243 241 242 246 251 249 229 216 213 208 202 199 197 196 188 184 180 175 170 160 123 89 73 78 93 105 123 133 132 131 128 122 122 132 128 128 128 152
217 214 211 210 212 251 245 248 246 242 235 243 263 277 293 300 290 256 228 214 210 206 202 197 195 186 183 177 169 160 129 111 108 92 87 100 114 129 144 143 141 136 132 141 155 158 161 136 171
218 224 224 228 219 234 254 247 234 224 213 209 253 326 326 324 316 295 250 227 215 208 203 198 191 183 177 160 141 127 122 113 110 116 116 118 131 144 151 148 140 143 151 153 158 158 154 144 138
212 216 228 235 243 235 220 247 216 206 205 196 7 354 345 339 330 321 285 230 217 209 199 192 183 173 163 154 149 148 145 138 150 149 145 138 130 126 125 123 121 121 121 125 130 117 126 146 153
215 203 218 231 239 251 226 244 234 191 205 185 40 13 5 358 354 360 9 50 177 183 181 172 156 149 149 147 147 146 146 144 144 140 136 124 108 101 101 104 109 113 110 106 104 107 113 142 155
204 191 210 230 236 236 229 231 232 194 185 114 43 29 21 18 31 45 56 69 82 100 115 121 124 125 131 137 142 144 145 144 142 140 132 119 106 101 105 112 113 112 110 110 110 113 105 91 91
207 210 211 212 216 231 203 219 214 104 86 64 50 46 44 42 50 58 64 71 79 88 99 109 115 117 121 123 124 131 137 143 143 138 127 122 117 115 119 118 117 113 113 115 117 114 111 120 130
207 217 227 226 218 208 181 219 141 109 100 88 78 72 66 59 59 61 63 69 77 84 92 102 107 108 109 111 113 117 121 123 122 122 124 124 122 120 121 116 114 116 120 119 120 127 132 140 217
207 219 234 256 263 242 199 168 129 135 123 105 93 82 71 66 63 63 63 67 72 78 83 91 96 96 98 101 104 107 109 113 117 119 121 120 121 123 122 119 116 114 115 120 144 121 137 163 283
230 222 220 230 235 233 225 212 198 170 151 125 103 90 81 74 68 63 62 65 68 72 77 81 87 91 95 99 101 103 106 112 116 117 115 116 117 117 120 116 115 116 118 125 137 129 94 8 340
206 214 223 231 242 244 239 214 87 150 145 129 107 93 85 78 71 67 65 66 70 74 78 82 86 88 90 94 97 100 103 106 107 109 111 112 113 116 116 116 115 115 115 113 106 77 46 332 328
209 218 219 231 233 242 258 158 88 121 127 122 110 96 86 81 76 74 75 76 77 79 82 84 88 90 93 96 97 98 102 104 105 105 106 107 106 105 107 109 109 109 107 101 83 40 353 335 327
Height
1539 1539 1539 1540 1531 1521 1516 1510 1510 1510 1510 1515 1517 1517 1516 1516 1518 1525 1528 1528 1531 1534 1537 1539 1543 1546 1549 1552 1554 1557 1559 1560 1562 1563 1565 1566 1568 1569 1570 1572 1573 1574 1575 1575 1576 1576 1577 1577 1578
1539 1539 1541 1538 1528 1525 1516 1509 1511 1511 1515 1517 1519 1520 1519 1519 1524 1526 1526 1528 1531 1535 1538 1540 1543 1546 1550 1553 1555 1558 1560 1562 1563 1565 1566 1567 1569 1570 1571 1572 1573 1574 1575 1576 1576 1576 1577 1578 1578
1538 1539 1540 1531 1526 1524 1516 1509 1511 1513 1517 1518 1517 1519 1520 1522 1525 1526 1526 1528 1532 1536 1539 1541 1544 1547 1550 1553 1556 1558 1561 1562 1564 1566 1567 1569 1570 1571 1572 1573 1574 1575 1576 1576 1576 1577 1577 1578 1579
1539 1540 1537 1530 1524 1516 1514 1512 1514 1514 1516 1517 1517 1519 1522 1525 1526 1526 1527 1530 1534 1537 1540 1541 1544 1548 1551 1554 1556 1559 1561 1563 1565 1566 1568 1570 1571 1572 1573 1574 1575 1576 1576 1577 1577 1577 1578 1578 1579
1537 1535 1529 1525 1518 1512 1512 1514 1516 1514 1513 1516 1518 1517 1522 1526 1526 1527 1528 1532 1535 1538 1541 1541 1545 1548 1552 1554 1557 1560 1562 1564 1566 1567 1569 1570 1571 1573 1574 1575 1576 1576 1577 1577 1577 1577 1578 1579 1579
1534 1530 1526 1522 1513 1509 1511 1513 1514 1513 1511 1514 1517 1517 1522 1526 1527 1528 1530 1533 1536 1538 1542 1542 1545 1548 1552 1555 1558 1560 1562 1564 1566 1567 1569 1570 1572 1573 1574 1575 1576 1577 1577 1577 1577 1577 1578 1579 1580
1529 1524 1520 1515 1512 1510 1510 1511 1511 1510 1510 1512 1515 1516 1521 1526 1527 1529 1531 1534 1537 1539 1542 1543 1545 1548 1551 1554 1557 1560 1562 1564 1566 1567 1569 1570 1571 1573 1574 1575 1576 1576 1576 1577 1577 1577 1578 1579 1580
1527 1522 1517 1513 1513 1510 1507 1509 1509 1509 1509 1512 1515 1515 1518 1524 1526 1528 1531 1534 1537 1539 1541 1543 1546 1548 1551 1553 1556 1559 1561 1563 1565 1567 1568 1569 1571 1572 1573 1574 1575 1575 1576 1576 1577 1577 1578 1579 1580
1527 1523 1514 1509 1510 1506 1505 1507 1507 1508 1509 1511 1514 1515 1518 1521 1524 1527 1530 1533 1535 1538 1540 1542 1546 1548 1551 1554 1555 1558 1560 1562 1564 1565 1567 1568 1570 1572 1572 1573 1574 1574 1575 1576 1576 1577 1578 1579 1580
1523 1517 1508 1505 1505 1503 1505 1506 1505 1506 1506 1509 1512 1516 1518 1519 1522 1525 1528 1530 1533 1535 1538 1541 1545 1547 1551 1554 1555 1557 1559 1561 1563 1565 1566 1568 1570 1571 1573 1572 1573 1573 1574 1575 1576 1577 1578 1580 1582
1517 1511 1506 1508 1509 1508 1506 1505 1505 1503 1501 1503 1507 1512 1516 1518 1520 1523 1526 1529 1531 1534 1536 1540 1543 1546 1550 1553 1555 1557 1560 1561 1562 1565 1565 1567 1569 1570 1571 1572 1572 1573 1575 1577 1576 1578 1580 1582 1581
1512 1510 1509 1508 1508 1509 1506 1504 1502 1500 1498 1500 1504 1508 1513 1515 1517 1520 1524 1527 1530 1533 1534 1538 1540 1543 1547 1551 1553 1555 1558 1559 1561 1562 1563 1566 1567 1569 1570 1571 1572 1574 1575 1576 1578 1579 1579 1580 1581
1510 1509 1510 1509 1508 1506 1505 1502 1500 1496 1497 1500 1502 1505 1509 1511 1514 1517 1522 1526 1528 1530 1533 1535 1538 1540 1543 1547 1550 1553 1555 1558 1560 1561 1562 1564 1566 1567 1569 1570 1570 1573 1574 1575 1577 1578 1578 1579 1581
1506 1508 1507 1506 1504 1503 1502 1497 1496 1492 1495 1497 1499 1502 1505 1507 1511 1514 1517 1521 1524 1527 1530 1533 1535 1537 1540 1543 1547 1550 1553 1555 1559 1559 1561 1562 1565 1566 1567 1568 1569 1571 1573 1575 1576 1577 1577 1579 1580
1506 1506 1504 1502 1501 1498 1498 1493 1489 1490 1492 1493 1496 1499 1501 1504 1507 1510 1512 1515 1519 1523 1527 1529 1532 1535 1537 1541 1544 1547 1550 1553 1555 1557 1558 1559 1562 1563 1565 1566 1568 1569 1570 1571 1573 1575 1576 1577 1577
1504 1504 1502 1493 1495 1495 1498 1488 1483 1488 1489 1489 1492 1495 1498 1501 1503 1506 1509 1512 1516 1520 1523 1525 1529 1532 1534 1538 1541 1545 1547 1549 1552 1554 1556 1557 1559 1561 1563 1564 1565 1567 1569 1570 1572 1573 1574 1574 1575
1498 1498 1496 1490 1491 1490 1491 1482 1481 1486 1487 1487 1489 1492 1495 1497 1500 1502 1506 1509 1513 1516 1519 1521 1525 1528 1531 1535 1538 1541 1544 1546 1549 1552 1554 1555 1557 1558 1560 1562 1564 1565 1567 1568 1570 1571 1571 1571 1571
1492 1490 1491 1489 1487 1489 1487 1482 1481 1484 1485 1484 1486 1489 1491 1493 1495 1499 1502 1506 1509 1512 1514 1517 1521 1525 1528 1532 1535 1538 1541 1544 1546 1549 1551 1553 1554 1556 1558 1559 1561 1563 1565 1566 1567 1568 1568 1568 1568
1487 1488 1488 1486 1487 1489 1485 1483 1480 1482 1484 1483 1484 1486 1488 1490 1493 1495 1497 1500 1504 1507 1509 1512 1516 1520 1524 1528 1531 1534 1537 1540 1543 1544 1547 1549 1551 1553 1554 1555 1558 1560 1561 1562 1563 1564 1564 1564 1565
1493 1493 1490 1488 1489 1489 1485 1483 1479 1480 1482 1484 1484 1486 1487 1488 1490 1491 1493 1495 1498 1501 1504 1507 1511 1516 1519 1524 1527 1531 1533 1535 1537 1540 1542 1544 1545 1547 1550 1551 1553 1555 1558 1559 1560 1561 1561 1561 1561
1492 1492 1489 1489 1485 1487 1489 1485 1478 1478 1481 1484 1485 1486 1487 1487 1487 1487 1488 1490 1493 1496 1499 1503 1507 1511 1515 1519 1522 1525 1528 1531 1533 1535 1538 1540 1541 1543 1546 1546 1548 1551 1554 1556 1557 1558 1558 1558 1558
1490 1486 1487 1489 1490 1482 1485 1485 1470 1473 1477 1481 1484 1486 1486 1486 1485 1484 1484 1485 1488 1492 1496 1500 1503 1507 1511 1515 1518 1520 1523 1526 1530 1532 1535 1537 1538 1540 1542 1544 1545 1548 1550 1552 1554 1554 1555 1556 1557
1480 1479 1484 1485 1486 1486 1483 1487 1468 1469 1475 1478 1484 1487 1487 1486 1485 1483 1483 1483 1485 1488 1492 1496 1500 1504 1508 1511 1514 1517 1520 1523 1525 1528 1530 1534 1536 1538 1540 1542 1544 1546 1548 1550 1552 1553 1553 1554 1556
1477 1482 1484 1484 1483 1492 1480 1482 1473 1465 1473 1479 1485 1489 1489 1488 1486 1484 1483 1482 1483 1486 1489 1493 1497 1501 1505 1509 1512 1515 1518 1520 1522 1524 1527 1530 1534 1536 1538 1541 1543 1545 1547 1549 1551 1551 1552 1553 1553
1478 1484 1489 1489 1488 1482 1468 1477 1469 1475 1481 1486 1489 1491 1491 1490 1488 1486 1485 1484 1485 1487 1489 1492 1496 1500 1504 1508 1511 1514 1517 1519 1521 1523 1526 1529 1532 1536 1538 1541 1543 1545 1547 1549 1550 1550 1551 1552 1552
1475 1477 1483 1484 1479 1470 1473 1472 1467 1478 1486 1489 1491 1493 1493 1492 1491 1489 1488 1488 1488 1489 1491 1494 1497 1501 1505 1508 1511 1514 1516 1519 1521 1523 1526 1529 1532 1536 1539 1542 1544 1546 1547 1548 1549 1550 1550 1550 1550
1469 1470 1465 1471 1469 1470 1463 1465 1475 1481 1485 1490 1492 1494 1495 1495 1494 1493 1492 1492 1492 1493 1495 1497 1500 1503 1506 1509 1511 1514 1516 1519 1521 1524 1527 1530 1533 1537 1540 1543 1544 1546 1548 1549 1549 1550 1550 1549 1549
1460 1461 1467 1474 1481 1481 1468 1465 1463 1476 1483 1489 1493 1496 1497 1497 1497 1496 1496 1496 1496 1497 1499 1500 1503 1505 1508 1510 1512 1515 1517 1520 1523 1526 1529 1532 1535 1538 1541 1543 1545 1546 1547 1548 1549 1549 1548 1548 1546
1463 1465 1465 1464 1462 1470 1473 1464 1463 1470 1481 1489 1495 1498 1499 1499 1499 1499 1499 1499 1500 1501 1502 1504 1506 1508 1510 1512 1515 1517 1520 1522 1525 1528 1531 1534 1537 1540 1542 1544 1545 1546 1547 1547 1547 1547 1546 1545 1544
1455 1457 1461 1468 1466 1463 1464 1471 1473 1477 1484 1491 1496 1499 1501 1501 1502 1502 1503 1503 1504 1505 1506 1508 1510 1511 1513 1515 1518 1520 1522 1525 1527 1530 1533 1536 1538 1541 1543 1544 1545 1546 1546 1546 1545 1545 1544 1543 1541